GW0881 Weather Reports


Display with metric or nautical units.
time (UTC)temp
F
wind
direction
speed
MPH
gust
MPH
rain 1hr
in
rain 24hr
in
rain mn
in
humidity
%
barometer
mb
20260905224406 82 225 0.0 0.0 0.00 0.00 0.00 69 1013.5
20260905223900 82 200 1.0 1.0 0.00 0.00 0.00 70 1013.4
20260905223358 82 192 1.0 1.0 0.00 0.00 0.00 68 1013.0
20260905222857 82 186 2.0 2.0 0.00 0.00 0.00 69 1012.9
20260905222356 82 186 1.0 1.0 0.00 0.00 0.00 69 1012.8
20260905221853 82 187 1.0 1.0 0.00 0.00 0.00 70 1012.9
20260905221350 82 194 0.0 1.0 0.00 0.00 0.00 69 1012.9
20260905220845 82 85 2.0 2.0 0.00 0.00 0.00 70 1013.0
20260905220341 82 154 0.0 1.0 0.00 0.00 0.00 69 1013.1
20260905215840 82 213 0.0 1.0 0.00 0.00 0.00 67 1013.2
20260905215336 82 189 0.0 1.0 0.00 0.00 0.00 69 1013.4
20260905214833 82 199 0.0 1.0 0.00 0.00 0.00 67 1013.5
20260905214333 82 210 0.0 1.0 0.00 0.00 0.00 69 1013.6
20260905213827 82 18 5.0 8.0 0.00 0.00 0.00 68 1013.6
20260905213324 82 97 2.0 3.0 0.00 0.00 0.00 69 1013.8
20260905212819 82 11 3.0 5.0 0.00 0.00 0.00 69 1013.9
20260905212318 82 240 1.0 1.0 0.00 0.00 0.00 71 1013.5
20260905211813 81 338 2.0 3.0 0.00 0.00 0.00 71 1013.5
20260905211308 81 37 3.0 5.0 0.00 0.00 0.00 70 1013.6
20260905210805 81 80 3.0 3.0 0.00 0.00 0.00 73 1013.6
20260905210304 81 20 4.0 5.0 0.00 0.00 0.00 73 1013.7
20260905205803 81 40 5.0 7.0 0.00 0.00 0.00 74 1013.8
20260905205258 81 80 3.0 5.0 0.00 0.00 0.00 75 1013.8
20260905204757 81 231 2.0 3.0 0.00 0.00 0.00 75 1014.0
20260905204254 81 200 1.0 1.0 0.00 0.00 0.00 77 1014.3
20260905203752 80 162 2.0 3.0 0.00 0.00 0.00 75 1014.2
20260905203248 80 46 4.0 7.0 0.00 0.00 0.00 76 1014.6
20260905202743 80 44 4.0 5.0 0.00 0.00 0.00 75 1014.5
20260905202238 80 156 1.0 1.0 0.00 0.00 0.00 76 1014.8
20260905201734 80 56 3.0 5.0 0.00 0.00 0.00 77 1014.8
20260905201229 80 39 3.0 5.0 0.00 0.00 0.00 75 1014.8
20260905200724 80 320 1.0 2.0 0.00 0.00 0.00 77 1015.0
20260905200220 80 173 1.0 1.0 0.00 0.00 0.00 77 1015.2
20260905195717 80 33 2.0 3.0 0.00 0.00 0.00 78 1015.4
20260905195212 79 137 0.0 0.0 0.00 0.00 0.00 77 1015.2
20260905194708 79 153 2.0 3.0 0.00 0.00 0.00 78 1015.3
20260905194207 79 190 1.0 1.0 0.00 0.00 0.00 78 1015.3
20260905193702 79 193 1.0 1.0 0.00 0.00 0.00 76 1015.3
20260905193157 78 231 1.0 1.0 0.00 0.00 0.00 77 1015.4
20260905192652 78 280 1.0 1.0 0.00 0.00 0.00 80 1015.2
20260905192149 78 196 1.0 1.0 0.00 0.00 0.00 79 1015.7
20260905191648 77 211 0.0 0.0 0.00 0.00 0.00 81 1015.7
20260905191145 77 164 1.0 2.0 0.00 0.00 0.00 81 1015.7
20260905190639 77 183 1.0 1.0 0.00 0.00 0.00 82 1015.8
20260905190138 78 213 0.0 0.0 0.00 0.00 0.00 81 1015.8
20260905185638 78 224 1.0 2.0 0.00 0.00 0.00 80 1015.7
20260905185138 78 200 0.0 0.0 0.00 0.00 0.00 81 1015.6
20260905184632 77 223 0.0 0.0 0.00 0.00 0.00 81 1015.8
20260905184131 77 216 0.0 1.0 0.00 0.00 0.00 81 1015.8
20260905183630 77 213 1.0 2.0 0.00 0.00 0.00 80 1015.9
20260905183126 77 228 0.0 0.0 0.00 0.00 0.00 82 1016.0
20260905182620 76 195 0.0 1.0 0.00 0.00 0.00 82 1015.8
20260905182119 76 218 0.0 0.0 0.00 0.00 0.00 82 1016.0
20260905181614 76 206 0.0 0.0 0.00 0.00 0.00 83 1016.0
20260905181113 76 220 0.0 0.0 0.00 0.00 0.00 82 1016.1
20260905180608 76 202 0.0 0.0 0.00 0.00 0.00 83 1016.2
20260905180104 76 204 0.0 1.0 0.00 0.00 0.00 83 1016.2
20260905175603 75 196 3.0 3.0 0.00 0.00 0.00 83 1016.4
20260905175058 75 206 1.0 1.0 0.00 0.00 0.00 84 1016.3
20260905174553 74 213 2.0 3.0 0.00 0.00 0.00 85 1016.3
20260905174049 74 194 1.0 1.0 0.00 0.00 0.00 85 1016.3
20260905173546 74 197 1.0 2.0 0.00 0.00 0.00 86 1016.3
20260905173041 73 192 2.0 2.0 0.00 0.00 0.00 86 1016.5
20260905172539 73 186 1.0 1.0 0.00 0.00 0.00 88 1016.4
20260905172034 72 197 1.0 1.0 0.00 0.00 0.00 88 1016.6
20260905171531 72 188 0.0 0.0 0.00 0.00 0.00 89 1016.4
20260905171027 72 199 1.0 2.0 0.00 0.00 0.00 90 1016.6
20260905170523 71 190 0.0 0.0 0.00 0.00 0.00 90 1016.6
20260905170018 71 201 0.0 1.0 0.00 0.00 0.00 91 1016.4
20260905165513 70 191 1.0 1.0 0.00 0.00 0.00 92 1016.6
20260905165008 69 162 2.0 3.0 0.00 0.00 0.00 94 1016.5
20260905164502 69 230 0.0 0.0 0.00 0.00 0.00 97 1016.5
20260905163956 68 180 1.0 1.0 0.00 0.00 0.00 98 1016.5
20260905163453 68 245 2.0 3.0 0.00 0.00 0.00 99 1016.8
20260905162949 68 198 0.0 1.0 0.00 0.00 0.00 99 1016.8
20260905162444 68 193 1.0 1.0 0.00 0.00 0.00 99 1016.7
20260905161939 67 188 1.0 1.0 0.00 0.00 0.00 99 1017.0
20260905161438 67 254 0.0 1.0 0.00 0.00 0.00 99 1016.7
20260905160936 66 215 0.0 0.0 0.00 0.00 0.00 99 1016.5
20260905160430 66 217 0.0 0.0 0.00 0.00 0.00 99 1016.8
20260905155930 66 46 1.0 2.0 0.00 0.00 0.00 99 1016.8
20260905155425 66 43 1.0 2.0 0.00 0.00 0.00 99 1017.1
20260905154923 66 30 1.0 1.0 0.00 0.00 0.00 99 1017.1
20260905154419 66 248 1.0 1.0 0.00 0.00 0.00 99 1017.0
20260905153915 65 150 1.0 1.0 0.00 0.00 0.00 99 1016.8
20260905153411 65 45 2.0 2.0 0.00 0.00 0.00 99 1016.8
20260905152910 65 55 4.0 5.0 0.00 0.00 0.00 99 1016.8
20260905152409 65 27 2.0 2.0 0.00 0.00 0.00 99 1017.0
20260905151905 65 235 0.0 1.0 0.00 0.00 0.00 99 1017.0
20260905151401 65 197 1.0 1.0 0.00 0.00 0.00 99 1017.0
20260905150900 65 256 1.0 1.0 0.00 0.00 0.00 99 1016.7
20260905150355 65 276 2.0 2.0 0.00 0.00 0.00 99 1016.5
20260905145852 65 287 1.0 1.0 0.00 0.00 0.00 99 1016.3
20260905145346 64 342 2.0 3.0 0.00 0.00 0.00 99 1016.0
20260905144846 64 225 1.0 1.0 0.00 0.00 0.00 99 1016.1
20260905144342 64 152 1.0 1.0 0.00 0.00 0.00 99 1016.0
20260905143839 64 209 0.0 0.0 0.00 0.00 0.00 99 1016.1
20260905143334 64 112 1.0 2.0 0.00 0.00 0.00 99 1016.1
20260905142833 64 269 1.0 1.0 0.00 0.00 0.00 99 1016.2
20260905142332 64 63 1.0 2.0 0.00 0.00 0.00 99 1016.0
20260905141829 64 284 2.0 2.0 0.00 0.00 0.00 99 1016.3
20260905141324 64 185 0.0 1.0 0.00 0.00 0.00 99 1016.3
20260905140820 64 225 1.0 1.0 0.00 0.00 0.00 99 1016.3
20260905140320 64 105 1.0 1.0 0.00 0.00 0.00 99 1016.4
20260905135818 64 226 0.0 1.0 0.00 0.00 0.00 99 1016.5
20260905135314 64 54 1.0 1.0 0.00 0.00 0.00 99 1016.2
20260905134810 64 313 1.0 2.0 0.00 0.00 0.00 99 1016.5
20260905134308 64 214 0.0 0.0 0.00 0.00 0.00 99 1016.2
20260905133803 64 135 1.0 1.0 0.00 0.00 0.00 99 1016.2
20260905133258 64 209 0.0 0.0 0.00 0.00 0.00 99 1016.2
20260905132757 64 215 1.0 1.0 0.00 0.00 0.00 99 1016.2
20260905132253 64 197 0.0 0.0 0.00 0.00 0.00 99 1016.2
20260905131748 64 227 1.0 1.0 0.00 0.00 0.00 99 1016.2
20260905131243 64 147 0.0 0.0 0.00 0.00 0.00 99 1016.1
20260905130738 64 188 1.0 1.0 0.00 0.00 0.00 99 1016.0
20260905130237 64 217 1.0 2.0 0.00 0.00 0.00 99 1015.8
20260905125732 64 163 1.0 1.0 0.00 0.00 0.00 99 1015.5
20260905125227 64 259 1.0 1.0 0.00 0.00 0.00 99 1015.4
20260905124724 64 168 1.0 1.0 0.00 0.00 0.00 99 1015.1
20260905124219 64 250 1.0 1.0 0.00 0.00 0.00 99 1015.0
20260905123714 63 64 2.0 2.0 0.00 0.00 0.00 99 1015.0
20260905123211 63 73 2.0 2.0 0.00 0.00 0.00 99 1015.1
20260905122711 63 61 4.0 5.0 0.00 0.00 0.00 99 1015.1
20260905122205 64 57 2.0 2.0 0.00 0.00 0.00 99 1015.1
20260905121700 64 303 1.0 1.0 0.00 0.00 0.00 99 1014.9
20260905121156 63 197 0.0 1.0 0.00 0.00 0.00 99 1014.9
20260905120655 63 190 0.0 0.0 0.00 0.00 0.00 99 1015.2
20260905120150 63 212 0.0 1.0 0.00 0.00 0.00 99 1015.1
20260905115644 63 188 1.0 1.0 0.00 0.00 0.00 99 1015.1
20260905115139 63 240 1.0 1.0 0.00 0.00 0.00 99 1015.1
20260905114638 63 48 1.0 2.0 0.00 0.00 0.00 99 1015.2
20260905114137 63 65 3.0 3.0 0.00 0.00 0.00 99 1014.7
20260905113632 63 66 1.0 1.0 0.00 0.00 0.00 99 1014.8
20260905113128 63 52 2.0 3.0 0.00 0.00 0.00 99 1015.0
20260905112627 63 310 1.0 1.0 0.00 0.00 0.00 99 1014.9
20260905112124 63 72 2.0 2.0 0.00 0.00 0.00 99 1014.9
20260905111618 63 130 2.0 2.0 0.00 0.00 0.00 99 1014.9
20260905111117 63 58 3.0 3.0 0.00 0.00 0.00 99 1014.9
20260905110616 63 61 2.0 2.0 0.00 0.00 0.00 99 1014.9
20260905110112 64 34 1.0 1.0 0.00 0.00 0.00 99 1014.7
20260905105612 64 254 1.0 1.0 0.00 0.00 0.00 99 1014.6
20260905105111 64 206 1.0 1.0 0.00 0.00 0.00 99 1014.6
20260905104606 64 212 0.0 0.0 0.00 0.00 0.00 99 1014.5
20260905104101 64 207 0.0 0.0 0.00 0.00 0.00 99 1014.4
20260905103556 64 74 2.0 2.0 0.00 0.00 0.00 99 1014.7
20260905103053 63 200 0.0 1.0 0.00 0.00 0.00 99 1014.7
20260905102548 63 168 1.0 1.0 0.00 0.00 0.00 99 1014.6
20260905102044 63 170 1.0 1.0 0.00 0.00 0.00 99 1014.6
20260905101543 63 211 0.0 1.0 0.00 0.00 0.00 99 1014.8
20260905101041 64 217 0.0 0.0 0.00 0.00 0.00 99 1014.9
20260905100538 64 198 1.0 1.0 0.00 0.00 0.00 99 1014.6
20260905100037 64 252 1.0 1.0 0.00 0.00 0.00 99 1014.4
20260905095532 64 78 1.0 2.0 0.00 0.00 0.00 99 1014.1
20260905095027 64 138 0.0 1.0 0.00 0.00 0.00 99 1014.0
20260905094522 63 251 3.0 3.0 0.00 0.00 0.00 99 1013.8
20260905094021 63 224 1.0 1.0 0.00 0.00 0.00 99 1013.8
20260905093516 63 67 2.0 2.0 0.00 0.00 0.00 99 1013.8
20260905093012 63 105 1.0 1.0 0.00 0.00 0.00 99 1013.8
20260905092507 63 259 1.0 1.0 0.00 0.00 0.00 99 1013.7
20260905092003 64 30 1.0 2.0 0.00 0.00 0.00 99 1013.9
20260905091502 64 34 4.0 5.0 0.00 0.00 0.00 99 1013.8
20260905090956 63 50 3.0 5.0 0.00 0.00 0.00 99 1013.9
20260905090451 64 49 2.0 2.0 0.00 0.00 0.00 99 1014.2
20260905085950 64 46 3.0 3.0 0.00 0.00 0.00 99 1014.2
20260905085449 64 4 2.0 2.0 0.00 0.00 0.00 99 1014.3
20260905084945 64 102 4.0 5.0 0.00 0.00 0.00 99 1014.3
20260905084445 64 106 1.0 1.0 0.00 0.00 0.00 99 1014.3
20260905083939 64 351 1.0 2.0 0.00 0.00 0.00 99 1014.3
20260905083435 64 33 1.0 2.0 0.00 0.00 0.00 99 1014.4
20260905082931 64 33 2.0 3.0 0.00 0.00 0.00 99 1014.6
20260905082427 64 32 2.0 2.0 0.00 0.00 0.00 98 1014.5
20260905081922 64 162 1.0 1.0 0.00 0.00 0.00 98 1014.7
20260905081417 64 186 0.0 0.0 0.00 0.00 0.00 98 1014.7
20260905080915 64 37 1.0 1.0 0.00 0.00 0.00 98 1014.8
20260905080410 64 29 3.0 5.0 0.00 0.00 0.00 98 1014.8
20260905075909 64 66 2.0 2.0 0.00 0.00 0.00 98 1014.8
20260905075403 64 324 1.0 1.0 0.00 0.00 0.00 98 1014.6
20260905074902 64 205 0.0 0.0 0.00 0.00 0.00 98 1014.5
20260905074358 64 38 1.0 2.0 0.00 0.00 0.00 98 1014.6
20260905073854 64 207 0.0 0.0 0.00 0.00 0.00 98 1014.5
20260905073349 64 262 2.0 2.0 0.00 0.00 0.00 98 1014.5
20260905072844 64 29 1.0 2.0 0.00 0.00 0.00 98 1014.6
20260905072338 64 47 3.0 3.0 0.00 0.00 0.00 98 1014.6
20260905071835 64 88 1.0 1.0 0.00 0.00 0.00 98 1014.4
20260905071331 64 247 1.0 1.0 0.00 0.00 0.00 97 1014.5
20260905070825 64 346 2.0 2.0 0.00 0.00 0.00 97 1014.6
20260905070322 64 82 3.0 3.0 0.00 0.00 0.00 97 1014.5
20260905065821 64 46 2.0 2.0 0.00 0.00 0.00 97 1014.4
20260905065319 64 9 2.0 2.0 0.00 0.00 0.00 97 1014.5
20260905064815 64 42 4.0 6.0 0.00 0.00 0.00 97 1014.5
20260905064311 64 61 2.0 2.0 0.00 0.00 0.00 97 1014.5
20260905063809 64 135 1.0 1.0 0.00 0.00 0.00 97 1014.4
20260905063305 64 202 1.0 1.0 0.00 0.00 0.00 97 1014.3
20260905062801 64 212 1.0 1.0 0.00 0.00 0.00 97 1014.4
20260905062255 64 74 3.0 3.0 0.00 0.00 0.00 97 1014.5
20260905061749 64 213 0.0 1.0 0.00 0.00 0.00 97 1014.5
20260905061244 64 81 1.0 1.0 0.00 0.00 0.00 96 1014.6
20260905060738 64 184 1.0 2.0 0.00 0.00 0.00 96 1014.6
20260905060236 64 33 2.0 2.0 0.00 0.00 0.00 96 1014.7
20260905055733 64 353 3.0 5.0 0.00 0.00 0.00 96 1014.7
20260905055229 64 141 1.0 1.0 0.00 0.00 0.00 96 1014.6
20260905054724 64 53 1.0 2.0 0.00 0.00 0.00 96 1014.4
20260905054221 64 34 3.0 3.0 0.00 0.00 0.00 96 1014.5
20260905053719 64 216 1.0 1.0 0.00 0.00 0.00 96 1014.5
20260905053215 64 276 3.0 3.0 0.00 0.00 0.00 96 1014.4
20260905052709 64 17 4.0 6.0 0.00 0.00 0.00 96 1014.3
20260905052204 64 44 3.0 3.0 0.00 0.00 0.00 96 1014.3
20260905051704 64 135 1.0 1.0 0.00 0.00 0.00 95 1014.2
20260905051201 64 49 4.0 5.0 0.00 0.00 0.00 95 1014.2
20260905050657 64 359 3.0 3.0 0.00 0.00 0.00 95 1014.0
20260905050153 64 159 1.0 2.0 0.00 0.00 0.00 95 1014.1
20260905045653 64 342 2.0 3.0 0.00 0.00 0.00 94 1014.3
20260905045148 64 301 1.0 1.0 0.00 0.00 0.00 94 1014.1
20260905044643 65 53 2.0 2.0 0.00 0.00 0.00 94 1013.9
20260905044137 65 36 2.0 3.0 0.00 0.00 0.00 94 1014.2
20260905043636 65 189 1.0 1.0 0.00 0.00 0.00 93 1014.2
20260905043132 65 217 0.0 0.0 0.00 0.00 0.00 93 1013.8
20260905042631 65 229 1.0 1.0 0.00 0.00 0.00 93 1014.0
20260905042126 66 170 0.0 1.0 0.00 0.00 0.00 93 1014.1
20260905041621 66 293 1.0 2.0 0.00 0.00 0.00 93 1014.3
20260905041116 66 221 1.0 1.0 0.00 0.00 0.00 92 1014.1
20260905040611 66 96 2.0 2.0 0.00 0.00 0.00 92 1014.2
20260905040109 66 296 2.0 2.0 0.00 0.00 0.00 91 1014.1
20260905035605 67 226 0.0 1.0 0.00 0.00 0.00 91 1014.2
20260905035101 67 48 2.0 3.0 0.00 0.00 0.00 91 1014.3
20260905034557 67 31 4.0 5.0 0.00 0.00 0.00 91 1014.2
20260905034050 67 293 1.0 2.0 0.00 0.00 0.00 91 1014.0
20260905033545 67 307 2.0 2.0 0.00 0.00 0.00 90 1013.8
20260905033041 67 29 1.0 2.0 0.00 0.00 0.00 90 1014.1
20260905032541 68 17 1.0 1.0 0.00 0.00 0.00 90 1013.8
20260905032036 68 111 2.0 2.0 0.00 0.00 0.00 90 1013.9
20260905031532 68 49 1.0 2.0 0.00 0.00 0.00 89 1013.9
20260905031032 68 44 2.0 2.0 0.00 0.00 0.00 89 1013.8
20260905030526 69 19 1.0 1.0 0.00 0.00 0.00 88 1013.7
20260905030027 69 53 3.0 5.0 0.00 0.00 0.00 88 1013.9
20260905025522 69 42 3.0 3.0 0.00 0.00 0.00 88 1013.9
20260905025018 69 342 4.0 6.0 0.00 0.00 0.00 88 1013.6
20260905024513 70 354 2.0 2.0 0.00 0.00 0.00 87 1013.7
20260905024008 70 37 3.0 3.0 0.00 0.00 0.00 87 1013.5
20260905023508 70 307 1.0 2.0 0.00 0.00 0.00 87 1013.6
20260905023003 70 45 3.0 3.0 0.00 0.00 0.00 86 1013.6
20260905022457 71 65 3.0 5.0 0.00 0.00 0.00 86 1013.1
20260905021953 71 55 1.0 2.0 0.00 0.00 0.00 86 1013.4
20260905021452 72 63 2.0 2.0 0.00 0.00 0.00 85 1013.0
20260905020947 72 248 1.0 1.0 0.00 0.00 0.00 85 1013.0
20260905020447 72 52 3.0 3.0 0.00 0.00 0.00 85 1013.1
20260905015942 73 118 1.0 1.0 0.00 0.00 0.00 85 1013.1
20260905015440 73 236 0.0 1.0 0.00 0.00 0.00 84 1012.9
20260905014939 73 76 2.0 2.0 0.00 0.00 0.00 84 1012.8
20260905014435 73 279 1.0 1.0 0.00 0.00 0.00 83 1012.9
20260905013930 74 198 0.0 1.0 0.00 0.00 0.00 83 1013.0
20260905013427 75 257 1.0 2.0 0.00 0.00 0.00 82 1012.7
20260905012921 75 38 2.0 3.0 0.00 0.00 0.00 82 1012.9
20260905012417 75 298 3.0 3.0 0.00 0.00 0.00 82 1012.5
20260905011914 75 239 1.0 1.0 0.00 0.00 0.00 82 1012.6
20260905011409 75 94 1.0 1.0 0.00 0.00 0.00 82 1012.5
20260905010904 76 181 1.0 1.0 0.00 0.00 0.00 82 1012.4
20260905010359 76 140 1.0 1.0 0.00 0.00 0.00 81 1012.3
20260905005855 76 218 0.0 0.0 0.00 0.00 0.00 81 1012.4
20260905005351 76 201 0.0 0.0 0.00 0.00 0.00 81 1012.3
20260905004845 77 205 0.0 0.0 0.00 0.00 0.00 80 1012.5
20260905004340 77 212 0.0 0.0 0.00 0.00 0.00 79 1012.1
20260905003835 78 210 0.0 0.0 0.00 0.00 0.00 78 1012.2
20260905003331 78 223 0.0 1.0 0.00 0.00 0.00 78 1012.2
20260905002827 78 201 0.0 1.0 0.00 0.00 0.00 77 1012.2
20260905002326 78 169 0.0 1.0 0.00 0.00 0.00 77 1012.3
20260905001821 79 63 2.0 2.0 0.00 0.00 0.00 76 1012.1
20260905001321 79 168 1.0 1.0 0.00 0.00 0.00 76 1012.2
20260905000816 79 52 1.0 2.0 0.00 0.00 0.00 76 1012.0
20260905000312 80 327 1.0 1.0 0.00 0.00 0.00 75 1012.0
20260904235807 80 171 1.0 1.0 0.00 0.00 0.00 75 1012.0
20260904235305 80 110 1.0 1.0 0.00 0.00 0.00 75 1011.7
20260904234757 81 46 3.0 3.0 0.00 0.00 0.00 74 1011.6
20260904234252 81 331 2.0 2.0 0.00 0.00 0.00 73 1011.7
20260904233747 81 354 1.0 2.0 0.00 0.00 0.00 73 1011.7
20260904233244 81 37 3.0 3.0 0.00 0.00 0.00 72 1011.8
20260904232740 82 190 1.0 1.0 0.00 0.00 0.00 73 1011.6
20260904232236 82 265 1.0 1.0 0.00 0.00 0.00 73 1011.7
20260904231731 82 185 1.0 1.0 0.00 0.00 0.00 73 1011.6
20260904231227 82 4 2.0 2.0 0.00 0.00 0.00 73 1011.4
20260904230726 82 310 1.0 2.0 0.00 0.00 0.00 71 1011.5
20260904230221 82 21 2.0 3.0 0.00 0.00 0.00 70 1011.4
20260904225720 82 43 2.0 2.0 0.00 0.00 0.00 71 1011.2
20260904225214 82 24 3.0 3.0 0.00 0.00 0.00 72 1011.3
20260904224713 82 69 3.0 3.0 0.00 0.00 0.00 71 1011.5